VOYAGER:1:PRINTED,ON:,1-OCT-01:11:41:37:V179054S24
START_TIME,STOP_TIME,SECTOR,SCAN_DIR,EBD5FLUX,EBD5UNC,EB02FLUX,EB02UNC,EB03FLUX,EB03UNC,EB04FLUX,EB04UNC,EB05FLUX,EB05UNC
1979-02-23 00:00:11.850 ,1979-02-23 00:00:17.790 ,3,1,-1.00,-1.00,0.000E+00,0.000E+00,613.,613.,0.000E+00,0.000E+00,0.000E+00,0.000E+00
1979-02-23 00:00:18.230 ,1979-02-23 00:00:41.790 ,4,1,5.905E+03,5.905E+03,0.000E+00,0.000E+00,657.,657.,0.000E+00,0.000E+00,413.,413.
1979-02-23 00:00:42.220 ,1979-02-23 00:01:05.790 ,5,1,0.000E+00,0.000E+00,1.808E+03,904.,202.,202.,212.,212.,93.6,66.2
1979-02-23 00:01:06.220 ,1979-02-23 00:01:29.790 ,6,1,5.905E+03,5.905E+03,0.000E+00,0.000E+00,0.000E+00,0.000E+00,1.175E+03,1.175E+03,0.000E+00,0.000E+00
1979-02-23 00:01:30.220 ,1979-02-23 00:01:53.790 ,7,1,0.000E+00,0.000E+00,2.242E+03,1.003E+03,423.,299.,425.,300.,158.,111.
1979-02-23 00:01:54.220 ,1979-02-23 00:02:35.790 ,8,1,3.637E+03,3.637E+03,1.084E+04,2.212E+03,4.643E+03,1.038E+03,1.449E+03,837.,201.,142.
1979-02-23 00:02:35.850 ,1979-02-23 00:02:41.790 ,8,-1,-1.00,-1.00,1.053E+04,3.720E+03,6.577E+03,2.079E+03,1.609E+03,1.609E+03,0.000E+00,0.000E+00
1979-02-23 00:02:42.230 ,1979-02-23 00:03:05.790 ,7,-1,5.905E+03,5.905E+03,2.795E+03,1.976E+03,676.,676.,0.000E+00,0.000E+00,0.000E+00,0.000E+00
1979-02-23 00:03:06.230 ,1979-02-23 00:03:29.790 ,6,-1,8.193E+03,8.193E+03,1.114E+03,643.,2.016E+03,672.,526.,526.,93.6,66.2
1979-02-23 00:03:30.230 ,1979-02-23 00:03:53.790 ,5,-1,5.905E+03,5.905E+03,1.335E+03,1.335E+03,701.,701.,976.,690.,0.000E+00,0.000E+00
1979-02-23 00:03:54.230 ,1979-02-23 00:04:17.790 ,4,-1,0.000E+00,0.000E+00,394.,394.,451.,319.,532.,307.,0.000E+00,0.000E+00
1979-02-23 00:04:18.230 ,1979-02-23 00:04:41.790 ,3,-1,0.000E+00,0.000E+00,1.415E+03,1.415E+03,0.000E+00,0.000E+00,1.175E+03,1.175E+03,0.000E+00,0.000E+00
1979-02-23 00:04:42.230 ,1979-02-23 00:05:05.790 ,2,-1,2.510E+04,2.510E+04,1.274E+03,736.,670.,387.,747.,374.,143.,143.
1979-02-23 00:05:05.850 ,1979-02-23 00:05:30.230 ,1,-1,0.000E+00,0.000E+00,0.000E+00,0.000E+00,0.000E+00,0.000E+00,0.000E+00,0.000E+00,0.000E+00,0.000E+00
1979-02-23 00:05:30.230 ,1979-02-23 00:05:53.790 ,1,1,2.067E+04,2.067E+04,3.694E+03,1.305E+03,1.089E+03,487.,0.000E+00,0.000E+00,236.,167.
1979-02-23 00:05:54.230 ,1979-02-23 00:06:17.790 ,2,1,1.772E+04,1.023E+04,1.237E+03,1.237E+03,1.417E+03,1.002E+03,0.000E+00,0.000E+00,0.000E+00,0.000E+00
1979-02-23 00:06:18.230 ,1979-02-23 00:06:41.790 ,3,1,2.067E+04,2.067E+04,3.092E+03,1.168E+03,869.,434.,0.000E+00,0.000E+00,236.,167.
1979-02-23 00:06:42.230 ,1979-02-23 00:07:05.790 ,4,1,0.000E+00,0.000E+00,4.244E+03,2.450E+03,0.000E+00,0.000E+00,0.000E+00,0.000E+00,0.000E+00,0.000E+00
1979-02-23 00:07:06.230 ,1979-02-23 00:07:29.790 ,5,1,0.000E+00,0.000E+00,2.936E+03,1.109E+03,1.793E+03,634.,961.,555.,129.,129.
1979-02-23 00:07:30.230 ,1979-02-23 00:07:53.790 ,6,1,1.772E+04,1.023E+04,2.795E+03,1.976E+03,676.,676.,976.,690.,0.000E+00,0.000E+00
1979-02-23 00:07:54.230 ,1979-02-23 00:08:17.790 ,7,1,0.000E+00,0.000E+00,2.259E+03,1.010E+03,197.,197.,311.,220.,0.000E+00,0.000E+00
1979-02-23 00:08:18.230 ,1979-02-23 00:08:59.790 ,8,1,6.317E+03,6.317E+03,1.169E+04,2.338E+03,4.251E+03,1.002E+03,2.109E+03,861.,175.,175.
1979-02-23 00:08:59.850 ,1979-02-23 00:09:05.790 ,8,-1,-1.00,-1.00,2.510E+03,1.774E+03,4.599E+03,1.738E+03,0.000E+00,0.000E+00,0.000E+00,0.000E+00
1979-02-23 00:09:06.220 ,1979-02-23 00:09:29.790 ,7,-1,0.000E+00,0.000E+00,2.783E+03,1.967E+03,2.122E+03,1.225E+03,0.000E+00,0.000E+00,0.000E+00,0.000E+00
1979-02-23 00:09:30.220 ,1979-02-23 00:09:53.790 ,6,-1,0.000E+00,0.000E+00,1.779E+03,889.,430.,304.,0.000E+00,0.000E+00,118.,118.
1979-02-23 00:09:54.220 ,1979-02-23 00:10:17.790 ,5,-1,0.000E+00,0.000E+00,0.000E+00,0.000E+00,1.970E+03,1.137E+03,1.058E+03,1.058E+03,0.000E+00,0.000E+00
1979-02-23 00:10:18.220 ,1979-02-23 00:10:41.790 ,4,-1,0.000E+00,0.000E+00,854.,604.,708.,409.,353.,353.,105.,60.8
1979-02-23 00:10:42.220 ,1979-02-23 00:11:05.790 ,3,-1,5.905E+03,5.905E+03,1.335E+03,1.335E+03,701.,701.,668.,668.,0.000E+00,0.000E+00
1979-02-23 00:11:06.220 ,1979-02-23 00:11:29.790 ,2,-1,2.067E+04,2.067E+04,2.703E+03,1.103E+03,416.,294.,0.000E+00,0.000E+00,354.,205.
1979-02-23 00:11:29.850 ,1979-02-23 00:11:54.220 ,1,-1,0.000E+00,0.000E+00,0.000E+00,0.000E+00,0.000E+00,0.000E+00,0.000E+00,0.000E+00,1.653E+03,1.653E+03
1979-02-23 00:11:54.220 ,1979-02-23 00:12:17.790 ,1,1,0.000E+00,0.000E+00,2.703E+03,1.103E+03,416.,294.,283.,283.,93.6,66.2
1979-02-23 00:12:18.220 ,1979-02-23 00:12:41.790 ,2,1,1.181E+04,8.350E+03,4.244E+03,2.450E+03,0.000E+00,0.000E+00,0.000E+00,0.000E+00,0.000E+00,0.000E+00
1979-02-23 00:12:42.220 ,1979-02-23 00:13:05.790 ,3,1,1.379E+04,1.379E+04,2.203E+03,985.,653.,377.,337.,337.,78.8,78.8
1979-02-23 00:13:06.220 ,1979-02-23 00:13:29.790 ,4,1,0.000E+00,0.000E+00,1.415E+03,1.415E+03,0.000E+00,0.000E+00,1.175E+03,1.175E+03,0.000E+00,0.000E+00
1979-02-23 00:13:30.220 ,1979-02-23 00:13:53.790 ,5,1,0.000E+00,0.000E+00,2.162E+03,967.,885.,442.,566.,400.,109.,109.
1979-02-23 00:13:54.220 ,1979-02-23 00:14:17.790 ,6,1,1.181E+04,8.350E+03,1.415E+03,1.415E+03,0.000E+00,0.000E+00,0.000E+00,0.000E+00,413.,413.
1979-02-23 00:14:18.220 ,1979-02-23 00:14:41.790 ,7,1,0.000E+00,0.000E+00,1.808E+03,904.,202.,202.,311.,220.,158.,111.
1979-02-23 00:14:42.220 ,1979-02-23 00:15:23.790 ,8,1,4.141E+03,4.141E+03,1.158E+04,2.362E+03,3.758E+03,939.,2.006E+03,819.,344.,199.
1979-02-23 00:15:23.850 ,1979-02-23 00:15:29.790 ,8,-1,-1.00,-1.00,4.784E+03,2.392E+03,3.964E+03,1.618E+03,1.370E+03,1.370E+03,234.,234.
1979-02-23 00:15:30.220 ,1979-02-23 00:15:53.790 ,7,-1,0.000E+00,0.000E+00,1.237E+03,1.237E+03,1.417E+03,1.002E+03,0.000E+00,0.000E+00,0.000E+00,0.000E+00
1979-02-23 00:15:54.230 ,1979-02-23 00:16:17.790 ,6,-1,0.000E+00,0.000E+00,1.779E+03,889.,430.,304.,283.,283.,93.6,66.2
1979-02-23 00:16:18.230 ,1979-02-23 00:16:41.790 ,5,-1,1.181E+04,8.350E+03,2.669E+03,1.887E+03,1.403E+03,992.,0.000E+00,0.000E+00,0.000E+00,0.000E+00
1979-02-23 00:16:42.230 ,1979-02-23 00:17:05.790 ,4,-1,0.000E+00,0.000E+00,2.764E+03,1.128E+03,0.000E+00,0.000E+00,748.,529.,0.000E+00,0.000E+00
1979-02-23 00:17:06.230 ,1979-02-23 00:17:29.790 ,3,-1,1.181E+04,8.350E+03,4.128E+03,2.383E+03,1.378E+03,974.,0.000E+00,0.000E+00,827.,585.
1979-02-23 00:17:30.230 ,1979-02-23 00:17:53.790 ,2,-1,0.000E+00,0.000E+00,2.704E+03,1.104E+03,193.,193.,212.,212.,78.8,78.8
1979-02-23 00:17:53.850 ,1979-02-23 00:18:18.230 ,1,-1,0.000E+00,0.000E+00,0.000E+00,0.000E+00,0.000E+00,0.000E+00,0.000E+00,0.000E+00,0.000E+00,0.000E+00
1979-02-23 00:18:18.230 ,1979-02-23 00:18:41.790 ,1,1,2.067E+04,2.067E+04,2.251E+03,1.007E+03,0.000E+00,0.000E+00,0.000E+00,0.000E+00,0.000E+00,0.000E+00
1979-02-23 00:18:42.230 ,1979-02-23 00:19:05.790 ,2,1,0.000E+00,0.000E+00,2.795E+03,1.976E+03,676.,676.,0.000E+00,0.000E+00,413.,413.
1979-02-23 00:19:06.230 ,1979-02-23 00:19:29.790 ,3,1,0.000E+00,0.000E+00,2.703E+03,1.103E+03,416.,294.,0.000E+00,0.000E+00,118.,118.
1979-02-23 00:19:30.230 ,1979-02-23 00:19:53.790 ,4,1,5.905E+03,5.905E+03,0.000E+00,0.000E+00,766.,766.,0.000E+00,0.000E+00,551.,551.
1979-02-23 00:19:54.230 ,1979-02-23 00:20:17.790 ,5,1,2.067E+04,2.067E+04,1.822E+03,911.,430.,304.,425.,300.,0.000E+00,0.000E+00
1979-02-23 00:20:18.230 ,1979-02-23 00:20:41.790 ,6,1,2.362E+04,1.181E+04,1.415E+03,1.415E+03,0.000E+00,0.000E+00,0.000E+00,0.000E+00,0.000E+00,0.000E+00
1979-02-23 00:20:42.230 ,1979-02-23 00:21:05.790 ,7,1,1.379E+04,1.379E+04,3.092E+03,1.168E+03,869.,434.,380.,380.,78.8,78.8
1979-02-23 00:21:06.230 ,1979-02-23 00:21:47.790 ,8,1,5.933E+03,5.933E+03,6.765E+03,1.807E+03,3.180E+03,882.,1.671E+03,747.,164.,164.
1979-02-23 00:21:47.850 ,1979-02-23 00:21:53.790 ,8,-1,-1.00,-1.00,3.482E+03,2.010E+03,6.565E+03,2.075E+03,1.609E+03,1.609E+03,0.000E+00,0.000E+00
1979-02-23 00:21:54.230 ,1979-02-23 00:22:17.790 ,7,-1,7.460E+03,5.274E+03,0.000E+00,0.000E+00,0.000E+00,0.000E+00,1.175E+03,1.175E+03,261.,261.
1979-02-23 00:22:18.230 ,1979-02-23 00:22:41.790 ,6,-1,2.067E+04,2.067E+04,1.306E+03,754.,669.,386.,637.,368.,0.000E+00,0.000E+00
1979-02-23 00:22:42.230 ,1979-02-23 00:23:05.790 ,5,-1,5.905E+03,5.905E+03,1.415E+03,1.415E+03,0.000E+00,0.000E+00,1.175E+03,1.175E+03,0.000E+00,0.000E+00
1979-02-23 00:23:06.230 ,1979-02-23 00:23:29.790 ,4,-1,0.000E+00,0.000E+00,1.706E+03,853.,1.122E+03,502.,783.,452.,192.,135.
1979-02-23 00:23:30.230 ,1979-02-23 00:23:53.790 ,3,-1,5.905E+03,5.905E+03,1.335E+03,1.335E+03,701.,701.,0.000E+00,0.000E+00,413.,413.
1979-02-23 00:23:54.230 ,1979-02-23 00:24:17.790 ,2,-1,0.000E+00,0.000E+00,785.,555.,923.,461.,0.000E+00,0.000E+00,0.000E+00,0.000E+00
1979-02-23 00:24:17.850 ,1979-02-23 00:24:42.230 ,1,-1,0.000E+00,0.000E+00,0.000E+00,0.000E+00,0.000E+00,0.000E+00,0.000E+00,0.000E+00,0.000E+00,0.000E+00
1979-02-23 00:24:42.230 ,1979-02-23 00:25:05.790 ,1,1,0.000E+00,0.000E+00,3.132E+03,1.183E+03,638.,368.,0.000E+00,0.000E+00,236.,167.
1979-02-23 00:25:06.230 ,1979-02-23 00:25:29.790 ,2,1,1.181E+04,8.350E+03,2.795E+03,1.976E+03,676.,676.,0.000E+00,0.000E+00,0.000E+00,0.000E+00
1979-02-23 00:25:30.230 ,1979-02-23 00:25:53.790 ,3,1,0.000E+00,0.000E+00,2.668E+03,1.089E+03,646.,373.,0.000E+00,0.000E+00,236.,167.
1979-02-23 00:25:54.230 ,1979-02-23 00:26:17.790 ,4,1,1.181E+04,8.350E+03,2.795E+03,1.976E+03,676.,676.,0.000E+00,0.000E+00,0.000E+00,0.000E+00
1979-02-23 00:26:18.230 ,1979-02-23 00:26:41.790 ,5,1,1.905E+04,1.905E+04,1.779E+03,889.,430.,304.,425.,300.,109.,109.
1979-02-23 00:26:42.230 ,1979-02-23 00:27:05.790 ,6,1,3.730E+03,3.730E+03,2.829E+03,2.001E+03,0.000E+00,0.000E+00,1.175E+03,1.175E+03,261.,261.
1979-02-23 00:27:06.230 ,1979-02-23 00:27:29.790 ,7,1,0.000E+00,0.000E+00,1.738E+03,869.,662.,382.,747.,374.,0.000E+00,0.000E+00
1979-02-23 00:27:30.230 ,1979-02-23 00:28:11.790 ,8,1,5.933E+03,5.933E+03,1.052E+04,2.193E+03,3.682E+03,921.,1.788E+03,799.,164.,164.
1979-02-23 00:28:11.850 ,1979-02-23 00:28:17.790 ,8,-1,-1.00,-1.00,1.531E+04,4.614E+03,4.082E+03,1.666E+03,2.033E+03,1.438E+03,0.000E+00,0.000E+00
1979-02-23 00:28:18.230 ,1979-02-23 00:28:41.790 ,7,-1,0.000E+00,0.000E+00,2.795E+03,1.976E+03,676.,676.,0.000E+00,0.000E+00,0.000E+00,0.000E+00
1979-02-23 00:28:42.230 ,1979-02-23 00:29:05.790 ,6,-1,2.067E+04,2.067E+04,394.,394.,451.,319.,0.000E+00,0.000E+00,354.,205.
1979-02-23 00:29:06.230 ,1979-02-23 00:29:29.790 ,5,-1,5.905E+03,5.905E+03,2.795E+03,1.976E+03,676.,676.,668.,668.,0.000E+00,0.000E+00
1979-02-23 00:29:30.230 ,1979-02-23 00:29:53.790 ,4,-1,0.000E+00,0.000E+00,1.181E+03,682.,1.353E+03,552.,848.,490.,129.,129.
1979-02-23 00:29:54.230 ,1979-02-23 00:30:17.790 ,3,-1,1.772E+04,1.023E+04,1.335E+03,1.335E+03,701.,701.,0.000E+00,0.000E+00,0.000E+00,0.000E+00
1979-02-23 00:30:18.230 ,1979-02-23 00:30:41.790 ,2,-1,2.067E+04,2.067E+04,785.,555.,923.,461.,383.,383.,0.000E+00,0.000E+00
1979-02-23 00:30:41.850 ,1979-02-23 00:31:06.230 ,1,-1,0.000E+00,0.000E+00,1.981E+04,1.981E+04,0.000E+00,0.000E+00,0.000E+00,0.000E+00,0.000E+00,0.000E+00
1979-02-23 00:31:06.230 ,1979-02-23 00:31:29.790 ,1,1,2.067E+04,2.067E+04,837.,591.,676.,390.,0.000E+00,0.000E+00,0.000E+00,0.000E+00
1979-02-23 00:31:30.230 ,1979-02-23 00:31:53.790 ,2,1,0.000E+00,0.000E+00,2.795E+03,1.976E+03,676.,676.,668.,668.,0.000E+00,0.000E+00
1979-02-23 00:31:54.230 ,1979-02-23 00:32:17.790 ,3,1,0.000E+00,0.000E+00,3.162E+03,1.195E+03,410.,290.,0.000E+00,0.000E+00,0.000E+00,0.000E+00
1979-02-23 00:32:18.230 ,1979-02-23 00:32:41.790 ,4,1,0.000E+00,0.000E+00,1.415E+03,1.415E+03,0.000E+00,0.000E+00,0.000E+00,0.000E+00,413.,413.
1979-02-23 00:32:42.230 ,1979-02-23 00:33:05.790 ,5,1,0.000E+00,0.000E+00,3.132E+03,1.183E+03,638.,368.,0.000E+00,0.000E+00,0.000E+00,0.000E+00
1979-02-23 00:33:06.230 ,1979-02-23 00:33:29.790 ,6,1,5.905E+03,5.905E+03,0.000E+00,0.000E+00,0.000E+00,0.000E+00,0.000E+00,0.000E+00,413.,413.
1979-02-23 00:33:30.230 ,1979-02-23 00:33:53.790 ,7,1,0.000E+00,0.000E+00,2.123E+03,950.,1.116E+03,499.,416.,416.,78.8,78.8
1979-02-23 00:33:54.230 ,1979-02-23 00:34:35.790 ,8,1,9.186E+03,6.495E+03,6.393E+03,1.708E+03,2.305E+03,728.,1.462E+03,654.,0.000E+00,0.000E+00
1979-02-23 00:34:35.850 ,1979-02-23 00:34:41.790 ,8,-1,-1.00,-1.00,8.613E+03,3.254E+03,5.259E+03,1.859E+03,0.000E+00,0.000E+00,0.000E+00,0.000E+00
1979-02-23 00:34:42.230 ,1979-02-23 00:35:05.790 ,7,-1,5.905E+03,5.905E+03,2.829E+03,2.001E+03,0.000E+00,0.000E+00,0.000E+00,0.000E+00,413.,413.
1979-02-23 00:35:06.230 ,1979-02-23 00:35:29.790 ,6,-1,0.000E+00,0.000E+00,1.352E+03,780.,208.,208.,212.,212.,93.6,66.2
1979-02-23 00:35:30.230 ,1979-02-23 00:35:53.790 ,5,-1,5.905E+03,5.905E+03,2.795E+03,1.976E+03,676.,676.,668.,668.,0.000E+00,0.000E+00
1979-02-23 00:35:54.230 ,1979-02-23 00:36:17.790 ,4,-1,2.067E+04,2.067E+04,1.352E+03,780.,208.,208.,0.000E+00,0.000E+00,0.000E+00,0.000E+00
1979-02-23 00:36:18.230 ,1979-02-23 00:36:41.790 ,3,-1,0.000E+00,0.000E+00,0.000E+00,0.000E+00,1.970E+03,1.137E+03,1.058E+03,1.058E+03,0.000E+00,0.000E+00
1979-02-23 00:36:42.230 ,1979-02-23 00:37:05.790 ,2,-1,0.000E+00,0.000E+00,1.314E+03,758.,438.,310.,283.,283.,0.000E+00,0.000E+00
1979-02-23 00:37:05.850 ,1979-02-23 00:37:30.230 ,1,-1,1.378E+04,1.378E+04,0.000E+00,0.000E+00,0.000E+00,0.000E+00,0.000E+00,0.000E+00,0.000E+00,0.000E+00
1979-02-23 00:37:30.230 ,1979-02-23 00:37:53.790 ,1,1,2.067E+04,2.067E+04,743.,525.,1.344E+03,549.,448.,448.,0.000E+00,0.000E+00
1979-02-23 00:37:54.230 ,1979-02-23 00:38:17.790 ,2,1,0.000E+00,0.000E+00,2.563E+03,1.812E+03,2.124E+03,1.226E+03,1.058E+03,1.058E+03,301.,212.
1979-02-23 00:38:18.230 ,1979-02-23 00:38:41.790 ,3,1,0.000E+00,0.000E+00,1.314E+03,758.,438.,310.,283.,283.,0.000E+00,0.000E+00
1979-02-23 00:38:42.230 ,1979-02-23 00:39:05.790 ,4,1,0.000E+00,0.000E+00,2.785E+03,1.969E+03,732.,732.,0.000E+00,0.000E+00,0.000E+00,0.000E+00
1979-02-23 00:39:06.230 ,1979-02-23 00:39:29.790 ,5,1,0.000E+00,0.000E+00,3.092E+03,1.168E+03,869.,434.,566.,400.,191.,110.
1979-02-23 00:39:30.230 ,1979-02-23 00:39:53.790 ,6,1,5.905E+03,5.905E+03,4.244E+03,2.450E+03,0.000E+00,0.000E+00,0.000E+00,0.000E+00,413.,413.
1979-02-23 00:39:54.230 ,1979-02-23 00:40:17.790 ,7,1,0.000E+00,0.000E+00,1.663E+03,832.,1.123E+03,502.,416.,416.,78.8,78.8
1979-02-23 00:40:18.230 ,1979-02-23 00:40:59.790 ,8,1,4.901E+03,4.901E+03,4.307E+03,1.361E+03,4.153E+03,978.,1.376E+03,794.,136.,136.
1979-02-23 00:40:59.850 ,1979-02-23 00:41:05.790 ,8,-1,-1.00,-1.00,1.562E+04,4.709E+03,1.923E+03,1.110E+03,1.884E+03,1.088E+03,0.000E+00,0.000E+00
1979-02-23 00:41:06.230 ,1979-02-23 00:41:29.790 ,7,-1,0.000E+00,0.000E+00,2.795E+03,1.976E+03,676.,676.,668.,668.,0.000E+00,0.000E+00
1979-02-23 00:41:30.230 ,1979-02-23 00:41:53.790 ,6,-1,0.000E+00,0.000E+00,3.557E+03,1.257E+03,861.,430.,0.000E+00,0.000E+00,0.000E+00,0.000E+00
1979-02-23 00:41:54.230 ,1979-02-23 00:42:17.790 ,5,-1,5.905E+03,5.905E+03,1.237E+03,1.237E+03,1.417E+03,1.002E+03,0.000E+00,0.000E+00,0.000E+00,0.000E+00
1979-02-23 00:42:18.230 ,1979-02-23 00:42:41.790 ,4,-1,0.000E+00,0.000E+00,1.384E+03,799.,208.,208.,311.,220.,0.000E+00,0.000E+00
1979-02-23 00:42:42.230 ,1979-02-23 00:43:05.790 ,3,-1,1.181E+04,8.350E+03,0.000E+00,0.000E+00,657.,657.,0.000E+00,0.000E+00,0.000E+00,0.000E+00
1979-02-23 00:43:06.230 ,1979-02-23 00:43:29.790 ,2,-1,2.067E+04,2.067E+04,0.000E+00,0.000E+00,627.,362.,337.,337.,0.000E+00,0.000E+00
1979-02-23 00:43:29.850 ,1979-02-23 00:43:54.230 ,1,-1,0.000E+00,0.000E+00,1.981E+04,1.981E+04,0.000E+00,0.000E+00,0.000E+00,0.000E+00,0.000E+00,0.000E+00
1979-02-23 00:43:54.230 ,1979-02-23 00:44:17.790 ,1,1,0.000E+00,0.000E+00,889.,629.,215.,215.,386.,223.,192.,135.
1979-02-23 00:44:18.230 ,1979-02-23 00:44:41.790 ,2,1,3.730E+03,3.730E+03,1.335E+03,1.335E+03,701.,701.,668.,668.,261.,261.
1979-02-23 00:44:42.230 ,1979-02-23 00:45:05.790 ,3,1,0.000E+00,0.000E+00,1.271E+03,734.,899.,450.,0.000E+00,0.000E+00,236.,167.
1979-02-23 00:45:06.230 ,1979-02-23 00:45:29.790 ,4,1,0.000E+00,0.000E+00,1.415E+03,1.415E+03,0.000E+00,0.000E+00,0.000E+00,0.000E+00,0.000E+00,0.000E+00
1979-02-23 00:45:30.230 ,1979-02-23 00:45:53.790 ,5,1,0.000E+00,0.000E+00,1.314E+03,758.,438.,310.,283.,283.,0.000E+00,0.000E+00
1979-02-23 00:45:54.230 ,1979-02-23 00:46:17.790 ,6,1,5.905E+03,5.905E+03,1.415E+03,1.415E+03,0.000E+00,0.000E+00,0.000E+00,0.000E+00,413.,413.
1979-02-23 00:46:18.230 ,1979-02-23 00:46:41.790 ,7,1,2.067E+04,2.067E+04,2.242E+03,1.003E+03,423.,299.,0.000E+00,0.000E+00,236.,167.
1979-02-23 00:46:42.230 ,1979-02-23 00:47:23.790 ,8,1,0.000E+00,0.000E+00,9.426E+03,2.108E+03,2.976E+03,825.,1.439E+03,720.,152.,152.
1979-02-23 00:47:23.850 ,1979-02-23 00:47:29.790 ,8,-1,-1.00,-1.00,8.832E+03,3.337E+03,3.905E+03,1.594E+03,0.000E+00,0.000E+00,0.000E+00,0.000E+00
1979-02-23 00:47:30.230 ,1979-02-23 00:47:53.790 ,7,-1,5.905E+03,5.905E+03,2.829E+03,2.001E+03,0.000E+00,0.000E+00,0.000E+00,0.000E+00,0.000E+00,0.000E+00
1979-02-23 00:47:54.230 ,1979-02-23 00:48:17.790 ,6,-1,0.000E+00,0.000E+00,3.680E+03,1.301E+03,630.,364.,498.,352.,0.000E+00,0.000E+00
1979-02-23 00:48:18.230 ,1979-02-23 00:48:41.790 ,5,-1,5.905E+03,5.905E+03,2.829E+03,2.001E+03,0.000E+00,0.000E+00,1.175E+03,1.175E+03,0.000E+00,0.000E+00
1979-02-23 00:48:42.230 ,1979-02-23 00:49:05.790 ,4,-1,1.379E+04,1.379E+04,815.,577.,676.,390.,498.,352.,158.,111.
1979-02-23 00:49:06.230 ,1979-02-23 00:49:29.790 ,3,-1,1.181E+04,8.350E+03,1.415E+03,1.415E+03,0.000E+00,0.000E+00,0.000E+00,0.000E+00,0.000E+00,0.000E+00
1979-02-23 00:49:30.230 ,1979-02-23 00:49:53.790 ,2,-1,0.000E+00,0.000E+00,763.,540.,1.125E+03,503.,0.000E+00,0.000E+00,236.,167.
1979-02-23 00:49:53.850 ,1979-02-23 00:50:18.230 ,1,-1,4.134E+04,2.387E+04,0.000E+00,0.000E+00,0.000E+00,0.000E+00,0.000E+00,0.000E+00,0.000E+00,0.000E+00
1979-02-23 00:50:18.230 ,1979-02-23 00:50:41.790 ,1,1,0.000E+00,0.000E+00,3.214E+03,1.214E+03,188.,188.,386.,223.,192.,135.
1979-02-23 00:50:42.230 ,1979-02-23 00:51:05.790 ,2,1,1.181E+04,8.350E+03,1.415E+03,1.415E+03,0.000E+00,0.000E+00,0.000E+00,0.000E+00,0.000E+00,0.000E+00
1979-02-23 00:51:06.230 ,1979-02-23 00:51:29.790 ,3,1,1.905E+04,1.905E+04,364.,364.,888.,444.,566.,400.,109.,109.
1979-02-23 00:51:30.230 ,1979-02-23 00:51:53.790 ,4,1,0.000E+00,0.000E+00,1.415E+03,1.415E+03,0.000E+00,0.000E+00,0.000E+00,0.000E+00,0.000E+00,0.000E+00
1979-02-23 00:51:54.230 ,1979-02-23 00:52:17.790 ,5,1,0.000E+00,0.000E+00,1.236E+03,714.,921.,460.,571.,404.,0.000E+00,0.000E+00
1979-02-23 00:52:18.230 ,1979-02-23 00:52:41.790 ,6,1,0.000E+00,0.000E+00,4.244E+03,2.450E+03,0.000E+00,0.000E+00,1.175E+03,1.175E+03,0.000E+00,0.000E+00
1979-02-23 00:52:42.230 ,1979-02-23 00:53:05.790 ,7,1,0.000E+00,0.000E+00,450.,450.,0.000E+00,0.000E+00,748.,529.,158.,111.
1979-02-23 00:53:06.230 ,1979-02-23 00:53:47.790 ,8,1,0.000E+00,0.000E+00,8.560E+03,1.963E+03,2.573E+03,776.,1.355E+03,678.,152.,152.
1979-02-23 00:53:47.850 ,1979-02-23 00:53:53.790 ,8,-1,-1.00,-1.00,1.151E+04,3.835E+03,4.148E+03,1.693E+03,2.033E+03,1.438E+03,0.000E+00,0.000E+00
1979-02-23 00:53:54.230 ,1979-02-23 00:54:17.790 ,7,-1,5.905E+03,5.905E+03,4.248E+03,2.453E+03,654.,654.,0.000E+00,0.000E+00,0.000E+00,0.000E+00
1979-02-23 00:54:18.230 ,1979-02-23 00:54:41.790 ,6,-1,2.758E+04,1.950E+04,2.587E+03,1.056E+03,1.108E+03,496.,416.,416.,78.8,78.8
1979-02-23 00:54:42.230 ,1979-02-23 00:55:05.790 ,5,-1,1.181E+04,8.350E+03,4.128E+03,2.383E+03,1.378E+03,974.,0.000E+00,0.000E+00,0.000E+00,0.000E+00
1979-02-23 00:55:06.230 ,1979-02-23 00:55:29.790 ,4,-1,0.000E+00,0.000E+00,2.162E+03,967.,885.,442.,380.,380.,0.000E+00,0.000E+00
1979-02-23 00:55:30.230 ,1979-02-23 00:55:53.790 ,3,-1,0.000E+00,0.000E+00,2.795E+03,1.976E+03,676.,676.,0.000E+00,0.000E+00,0.000E+00,0.000E+00
1979-02-23 00:55:54.230 ,1979-02-23 00:56:17.790 ,2,-1,0.000E+00,0.000E+00,394.,394.,451.,319.,0.000E+00,0.000E+00,118.,118.
1979-02-23 00:56:17.850 ,1979-02-23 00:56:42.230 ,1,-1,1.378E+04,1.378E+04,1.981E+04,1.981E+04,0.000E+00,0.000E+00,0.000E+00,0.000E+00,1.653E+03,1.653E+03
1979-02-23 00:56:42.230 ,1979-02-23 00:57:05.790 ,1,1,2.067E+04,2.067E+04,763.,540.,1.125E+03,503.,623.,440.,0.000E+00,0.000E+00
1979-02-23 00:57:06.230 ,1979-02-23 00:57:29.790 ,2,1,0.000E+00,0.000E+00,2.829E+03,2.001E+03,0.000E+00,0.000E+00,0.000E+00,0.000E+00,413.,413.
1979-02-23 00:57:30.230 ,1979-02-23 00:57:53.790 ,3,1,0.000E+00,0.000E+00,1.738E+03,869.,662.,382.,0.000E+00,0.000E+00,236.,167.
1979-02-23 00:57:54.230 ,1979-02-23 00:58:11.790 ,4,1,0.000E+00,0.000E+00,1.335E+03,1.335E+03,701.,701.,0.000E+00,0.000E+00,413.,413.
1979-02-23 00:58:59.850 ,1979-02-23 00:59:23.850 ,9,0,8.267E+03,8.267E+03,2.699E+03,1.349E+03,653.,462.,429.,429.,0.000E+00,0.000E+00
1979-02-23 00:59:23.850 ,1979-02-23 00:59:29.790 ,7,1,-1.00,-1.00,2.609E+03,1.844E+03,631.,631.,0.000E+00,0.000E+00,0.000E+00,0.000E+00
1979-02-23 00:59:30.230 ,1979-02-23 00:00:11.790 ,8,1,1.837E+04,9.186E+03,1.453E+04,2.653E+03,4.337E+03,995.,1.127E+03,796.,0.000E+00,0.000E+00
1979-02-23 01:00:11.850 ,1979-02-23 01:00:17.790 ,8,-1,-1.00,-1.00,6.229E+03,2.785E+03,3.273E+03,1.464E+03,1.221E+03,1.221E+03,226.,226.
1979-02-23 01:00:18.230 ,1979-02-23 01:00:41.790 ,7,-1,0.000E+00,0.000E+00,2.829E+03,2.001E+03,0.000E+00,0.000E+00,0.000E+00,0.000E+00,0.000E+00,0.000E+00
1979-02-23 01:00:42.230 ,1979-02-23 01:01:05.790 ,6,-1,2.067E+04,2.067E+04,2.200E+03,984.,670.,387.,0.000E+00,0.000E+00,118.,118.
1979-02-23 01:01:06.230 ,1979-02-23 01:01:29.790 ,5,-1,1.181E+04,8.350E+03,0.000E+00,0.000E+00,0.000E+00,0.000E+00,1.175E+03,1.175E+03,0.000E+00,0.000E+00
1979-02-23 01:01:30.230 ,1979-02-23 01:01:53.790 ,4,-1,2.067E+04,2.067E+04,725.,512.,1.561E+03,590.,477.,477.,0.000E+00,0.000E+00
1979-02-23 01:01:54.230 ,1979-02-23 01:02:17.790 ,3,-1,5.905E+03,5.905E+03,1.415E+03,1.415E+03,0.000E+00,0.000E+00,0.000E+00,0.000E+00,0.000E+00,0.000E+00
1979-02-23 01:02:18.230 ,1979-02-23 01:02:41.790 ,2,-1,0.000E+00,0.000E+00,2.627E+03,1.072E+03,877.,438.,380.,380.,78.8,78.8
1979-02-23 01:02:41.850 ,1979-02-23 01:03:06.230 ,1,-1,1.378E+04,1.378E+04,0.000E+00,0.000E+00,0.000E+00,0.000E+00,0.000E+00,0.000E+00,0.000E+00,0.000E+00
1979-02-23 01:03:06.230 ,1979-02-23 01:03:29.790 ,1,1,1.379E+04,1.379E+04,1.779E+03,889.,430.,304.,425.,300.,158.,111.
1979-02-23 01:03:30.230 ,1979-02-23 01:03:53.790 ,2,1,0.000E+00,0.000E+00,0.000E+00,0.000E+00,657.,657.,0.000E+00,0.000E+00,413.,413.
1979-02-23 01:03:54.230 ,1979-02-23 01:04:17.790 ,3,1,0.000E+00,0.000E+00,2.216E+03,991.,884.,442.,0.000E+00,0.000E+00,0.000E+00,0.000E+00
1979-02-23 01:04:18.230 ,1979-02-23 01:04:41.790 ,4,1,5.905E+03,5.905E+03,1.237E+03,1.237E+03,1.417E+03,1.002E+03,0.000E+00,0.000E+00,413.,413.
1979-02-23 01:04:42.230 ,1979-02-23 01:05:05.790 ,5,1,0.000E+00,0.000E+00,1.304E+03,753.,899.,449.,709.,409.,129.,129.
1979-02-23 01:05:06.230 ,1979-02-23 01:05:29.790 ,6,1,1.181E+04,8.350E+03,0.000E+00,0.000E+00,657.,657.,0.000E+00,0.000E+00,413.,413.
1979-02-23 01:05:30.230 ,1979-02-23 01:05:53.790 ,7,1,2.067E+04,2.067E+04,1.779E+03,889.,430.,304.,0.000E+00,0.000E+00,118.,118.
1979-02-23 01:05:54.230 ,1979-02-23 01:06:35.790 ,8,1,4.593E+03,4.593E+03,1.015E+04,2.163E+03,4.526E+03,1.038E+03,1.121E+03,792.,0.000E+00,0.000E+00
1979-02-23 01:06:35.850 ,1979-02-23 01:06:41.790 ,8,-1,-1.00,-1.00,1.031E+04,3.646E+03,3.202E+03,1.432E+03,1.827E+03,1.292E+03,0.000E+00,0.000E+00
1979-02-23 01:06:42.230 ,1979-02-23 01:07:05.790 ,7,-1,5.193E+03,5.193E+03,2.829E+03,2.001E+03,0.000E+00,0.000E+00,2.350E+03,1.662E+03,364.,364.
1979-02-23 01:07:06.230 ,1979-02-23 01:07:29.790 ,6,-1,0.000E+00,0.000E+00,3.051E+03,1.153E+03,1.100E+03,492.,416.,416.,0.000E+00,0.000E+00
1979-02-23 01:07:30.230 ,1979-02-23 01:07:53.790 ,5,-1,5.905E+03,5.905E+03,4.128E+03,2.383E+03,1.378E+03,974.,0.000E+00,0.000E+00,827.,585.
1979-02-23 01:07:54.230 ,1979-02-23 01:08:17.790 ,4,-1,0.000E+00,0.000E+00,1.239E+03,715.,899.,450.,380.,380.,78.8,78.8
1979-02-23 01:08:18.230 ,1979-02-23 01:08:41.790 ,3,-1,5.905E+03,5.905E+03,0.000E+00,0.000E+00,657.,657.,668.,668.,0.000E+00,0.000E+00